{"data":{"norad_id":66075,"epoch":"2026-05-24T23:53:55.456800Z","epoch_age_seconds":89497,"freshness":"FRESH","line1":"1 66075U 25235T   26144.99578075  .00015119  00000+0  52153-3 0  9993","line2":"2 66075  53.1574 250.8792 0001082  89.2270 270.8855 15.30201208 34603","mean_motion":15.30201208,"eccentricity":0.0001082,"inclination_deg":53.1574,"raan_deg":250.8792,"arg_perigee_deg":89.227,"mean_anomaly_deg":270.8855,"bstar":0.00052153,"rev_number":3460,"period_min":94.105271416045,"perigee_km":474.46993024779,"apogee_km":475.95299485509,"semimajor_km":6853.3484625514,"source":"CELESTRAK","updated_at":"2026-05-25T13:38:21.023815Z"}}